Regional Weather Roundup
Issued by NWS Wakefield, VA

Home | Current Version | Previous Version | Graphics & Text | Print | Product List | Glossary On
Versions: 1 2 3 4 5 6 7 8 9 10 11 12 13 14 15 16 17 18 19 20 21 22 23 24 25 26 27 28 29 30 31 32 33 34 35 36 37 38 39 40 41 42 43 44 45 46 47 48 49 50
000
ASUS41 KAKQ 061914
RWRAKQ

REGIONAL WEATHER ROUNDUP
NATIONAL WEATHER SERVICE WAKEFIELD VA
300 PM EDT WED MAY 06 2015

Note: "fair" indicates few or no clouds below 12,000 feet with no
significant weather and/or obstructions to visibility. * = Denotes
station may not report precipitation (e.g., rain,snow,etc.),
thunder or fog.

VAZ042-051-052>054-056-062000-
NORTHERN VIRGINIA

CITY           SKY/WX    TMP DP  RH WIND       PRES   REMARKS
WASH NATIONAL  MOSUNNY   83  64  52 E7        30.17F
DULLES         PTSUNNY   79  63  57 CALM      30.15F
FORT BELVOIR   MOSUNNY   80  66  62 SE10      30.16F
QUANTICO       MOSUNNY   77  63  61 SW8       30.17F
FREDERICKSBRG* NOT AVBL
STAFFORD*      SUNNY     80  62  54 E9        30.20F
WARRENTON      MOSUNNY   80  69  69 SE7       30.15F
CULPEPER*      PTSUNNY   80  64  59 CALM      30.16F
MANASSAS*      MOSUNNY   82  66  57 SE10G17   30.16F
LEESBURG*      MOSUNNY   82  63  51 E5        30.16F
WINCHESTER     MOSUNNY   84  52  32 E6        30.16F
FRONT ROYAL*   MOCLDY    81  63  54 S3        30.14F
LURAY*         FAIR      88  61  40 E6        30.15F
$$

VAZ048-049-060>072-079>083-062000-
CENTRAL AND SOUTH CENTRAL VIRGINIA

CITY           SKY/WX    TMP DP  RH WIND       PRES   REMARKS
RICHMOND       CLOUDY    84  60  44 SE9       30.16F
CHESTERFIELD*  FAIR      82  55  39 SW9       30.17F
PETERSBURG*    MOSUNNY   85  55  36 SE6       30.16F
HANOVER        MOSUNNY   82  61  48 VRB5      30.18F
TAPPAHANNOCK*  MOSUNNY   80  58  46 CALM      30.18F
QUINTON*       FAIR      82  59  46 SE7       30.16F
CHARLOTTSVILLE HVY RAIN  75  64  68 SW3       30.17F
GORDONSVILLE*  FAIR      80  61  53 NE6       30.15F
ORANGE*        MOSUNNY   81  63  54 SE5       30.18F
LOUISA*        SUNNY     82  64  54 E3        30.16F
BUMPASS*       FAIR      81  65  59 CALM      30.17S
FARMVILLE*     MOSUNNY   85  60  43 CALM      30.15F
CREWE*         FAIR      82  58  44 S5        30.16F
FORT PICKETT*  NOT AVBL
CHASE CITY*    FAIR      84  58  41 SE3       30.17F
CLARKSVILLE*   FAIR      81  59  47 E7        30.16F
SOUTH HILL*    MOSUNNY   81  58  45 CALM      30.23S
LAWRENCEVILLE* FAIR      82  59  45 CALM      30.17F
EMPORIA*       MOSUNNY   81  57  44 E7        30.18F
$$

VAZ088>098-062000-
SOUTHEAST VIRGINIA

CITY           SKY/WX    TMP DP  RH WIND       PRES   REMARKS
NORFOLK        PTSUNNY   81  56  42 SW7       30.17F
VIRGINIA BEACH PTSUNNY   79  59  50 SE7       30.18F
NORFOLK NAVAL  PTSUNNY   83  58  42 NE7       30.19F
WEST POINT*    MOSUNNY   85  54  34 S5        30.18F
SALUDA*        FAIR      77  62  59 E5        30.17F
NEWPORT NEWS   MOSUNNY   85  57  38 MISG      30.17F
LANGLEY AFB    MOSUNNY   80  60  51 E7        30.17F
FORT EUSTIS    MOSUNNY   80  58  46 S7        30.16F
WILLIAMSBURG*  SUNNY     86  61  42 SE7       30.18F
HR EXEC AP*    FAIR      82  59  44 E7        30.19F
FRANKLIN*      MOSUNNY   81  56  43 SE6       30.18F
WAKEFIELD      MOSUNNY   82  57  42 S7        30.17F
$$

VAZ020-022-025-037-045-062000-
WEST CENTRAL AND SOUTHWEST VIRGINIA

CITY           SKY/WX    TMP DP  RH WIND       PRES   REMARKS
STAUNTON*      PTSUNNY   82  56  40 S7        30.19F
WAYNESBORO*    FAIR      80  61  52 E8        30.19F
HOT SPRINGS VA PTSUNNY   73  42  32 N5        30.28S
LYNCHBURG      MOSUNNY   81  55  40 VRB7      30.17F
DANVILLE       MOSUNNY   84  57  39 NE6       30.16F
SOUTH BOSTON*  FAIR      83  58  42 SE5       30.16F
MARTINSVILLE   MOSUNNY   85  55  35 SE6       30.18F
ROANOKE        MOSUNNY   83  58  42 SE10      30.18F
BLACKSBURG     LGT RAIN  66  58  73 CALM      30.26S
DUBLIN*        CLOUDY    75  56  50 S3        30.24S
MARION*        PTSUNNY   78  52  40 NE5       30.24F
HILLSVILLE*    CLOUDY    69  54  58 CALM      30.25F
RICHLANDS*     FAIR      77  53  42 E3        30.23F
WISE*          CLOUDY    77  46  33 CALM      30.25F
ABINGDON*      PTSUNNY   82  50  33 E10       30.20F
$$

MDZ021>025-VAZ099-100-062000-
SOUTHERN MARYLAND AND THE DELMARVA PENINSULA

CITY           SKY/WX    TMP DP  RH WIND       PRES   REMARKS
PATUXENT RIVER PTSUNNY   72  60  66 SE9       30.18F
BAY BRIDGE APT   N/A    N/A N/A N/A W6        30.19F
LEONARDTOWN    MOSUNNY   77  59  53 E5        30.19F
DOVER          SUNNY     70  57  63 E15G23    30.19F
GEORGETOWN     SUNNY     72  54  53 E15G23    30.22F
EASTON         PTSUNNY   79  64  61 E8        30.22F
CAMBRIDGE      SUNNY     79  59  50 S5        30.18F
SALISBURY      MOSUNNY   77  59  53 NE13      30.18F
OCEAN CITY     MOSUNNY   64  54  69 E13       30.22F
WALLOPS ISLAND MOSUNNY   72  58  61 S13       30.20F
ACCOMACK*      MOSUNNY   77  61  57 S9        30.19F
$$

NCZ012>017-030>032-062000-
NORTH CENTRAL AND EASTERN NORTH CAROLINA

CITY           SKY/WX    TMP DP  RH WIND       PRES   REMARKS
ROANOKE RAPIDS FAIR      79  55  44 CALM      30.17F
RALEIGH        PTSUNNY   82  56  40 E6        30.17F
ELIZABETH CITY CLOUDY    73  56  54 SE9       30.20F
AHOSKIE*       SUNNY     78  54  43 SE6       30.18F
EDENTON*       CLOUDY    77  58  51 E7        30.19F
CURRITUCK*     CLOUDY    74  56  52 E6        30.21S
KILL DEVIL HLS CLOUDY    70  56  60 E6        30.20F
MANTEO         CLOUDY    72  58  61 S8        30.21F
CAPE HATTERAS  CLOUDY    71  58  63 SE8       30.21F
TARBORO*       FAIR      80  57  45 E3        30.19F
GOLDSBORO      CLOUDY    77  54  45 E8        30.16F
WASHINGTON     CLOUDY    74  55  51 SE12      30.19F
GREENVILLE     CLOUDY    79  55  44 SE8       30.19F
NEW BERN       CLOUDY    75  54  47 SE10      30.20F
WILMINGTON     CLOUDY    73  56  54 E13G22    30.17F
$$

VAZ048-062000-
ELSEWHERE

CITY           SKY/WX    TMP DP  RH WIND       PRES   REMARKS
HARRISBURG PA  PTSUNNY   73  55  53 E8        30.22F
BALTIMORE      MOSUNNY   78  60  53 E10       30.18F
ANNAPOLIS      SUNNY     72  64  76 SE7       30.18F
ANDREWS AFB    SUNNY     78  65  65 E13       30.17F
PHILADELPHIA   PTSUNNY   76  47  35 E10       30.22F
HENDERSON NC   MOSUNNY   81  55  40 SE7       30.18S
GREENSBORO     PTSUNNY   81  55  40 VRB7      30.17F
ROCKY MOUNT    CLOUDY    79  55  43 E5        30.18F
$$

VAZ100-062000-
MARINE

STATION/POSITION TIME  TEMP    WIND        PRES    WAVE   SWELL
                       AIR SEA DIR/SP/G            HT/PER HT/PER
                 (UTC) (F)     (DEG/KT/KT) (MB)    (FT/S) (FT/S)
BRANDYWINE LGT   1800   62 57  110/ 15/ 16 1023.9F
CAPE MAY NJ      1800      61   70/ 11/ 17 1023.7F
LEWES DE         1812   58 61   80/ 15/ 19 1023.8F
15NM E FENWICK I 1850   55 56              1022.9F   2/10
OCEAN-CITY-INLET 1812   61 53   70/  7/ 11 1023.3R
WACHAPREAGUE VA  1800   71 71  190/ 10/ 12 1022.8F
THOMAS POINT MD  1900   71 62  210/  2/  2 1022.8F
GOOSES REEF MD   1900   67 67                N/A     1/ 2
COVE POINT MD    1800   64     190/  8/  8 1023.5F
SOLOMONS ISLAND  1812      64                N/A
BISHOPS HEAD MD  1800      73  170/  5/  6 1022.6F
PINEY POINT MD   1800          180/  3/  4   N/A
CAMBRIDGE MD     1800      65  120/  3/  7 1022.2F
LEWISETTA VA     1800   67 67              1022.4F
RAPPAHANNOCK LGT 1800          180/ 10/ 11 1023.1F
YORK RVR RNG VA  1812   65     130/ 12/ 13 1021.9F
YORKTOWN VA      1812   68 62   80/ 12/ 12 1022.0F
JAMESTOWN VA     1900   77 67  120/  8/ 10 1020.6F
DOMINION TERM VA 1800   71      80/  8/  9 1022.5F
KIPTOPEKE VA     1800      67  180/  9/ 10   N/A
CHES BAY BRIDGE  1812   69 60   80/  9/ 11 1022.0F
CAPE HENRY VA    1800   69     140/ 13/ 18 1021.4F
CHESAPEAKE LGHT  1800   65     170/ 14/ 14 1023.7F
WILLOUBY STN VA  1800   69      60/  5/  5 1023.1F
S CRANEY ISL VA  1812          320/  2/  3 1022.2F
CAPE HENRY BUOY  1828      62                N/A     2/ 8
1ST LANDING BUOY 1900      62                N/A
CAPE CHARLES BUO 1826      60                N/A     2/ 4   2/11
OFFSHORE WE BUOY 1811      64                N/A     2/ 5   2/11
64NM E OF VA BCH 1850   66 62  160/  4/  4 1022.9F   2/ 8   2/ 8
DUCK PIER NC     1812   66 52   80/  2/  3 1022.2F
44056 DUCK FRF   1811      60                N/A     2/11
OREGON INLET NC  1800      69   60/  6/  7 1023.4F
HATTERAS NC      1812   71 67   90/  6/  8 1022.8F
DIAMOND SHLS NC  1850   71 74  100/ 12/ 14 1022.7F   3/ 8   3/ 8
CAPE LOOKOUT NC  1900   69      70/ 10/ 11 1021.7F
$$


USA.gov is the U.S. government's official web portal to all federal, state and local government web resources and services.